This demonstration page uses our WeatherBlox Daily Observations layout. Learn more.

Left ArrowRight Arrow

Hourly Observations for September 26, 2020

Temp ( °F °C ) Dew Point ( °F °C ) Humidity (%) Winds ( mph kmh ) Pressure ( in mb ) Visibility ( mi km ) Precip ( " mm )
12:52 am 00:52 Clear 66 18.9 60 15.6 81 81 Calm 29.69 1005 10 16 0.00 0.00
1:52 am 01:52 Clear 64 17.8 61 16.1 90 90 Calm 29.68 1005 10 16 0.00 0.00
2:52 am 02:52 Mostly Clear 62 16.7 59 15 90 90 Calm 29.67 1005 10 16 0.00 0.00
3:52 am 03:52 Mostly Clear 65 18.3 62 16.7 90 90 SE 8 13 29.65 1004 10 16 0.00 0.00
4:52 am 04:52 Partly Cloudy 66 18.9 63 17.2 90 90 SSE 5 7 29.64 1004 10 16 0.00 0.00
5:52 am 05:52 Partly Cloudy 66 18.9 64 17.8 93 93 SSE 8 13 29.64 1004 10 16 0.00 0.00
6:52 am 06:52 Mostly Cloudy 67 19.4 64 17.8 91 91 SSE 14 22 29.63 1003 10 16 0.00 0.00
7:52 am 07:52 Cloudy 67 19.4 64 17.8 91 91 S 14 22 29.62 1003 10 16 0.00 0.00
8:52 am 08:52 Cloudy 68 20 64 17.8 87 87 S 17 28 29.61 1003 10 16 0.00 0.00
9:52 am 09:52 Cloudy 71 21.7 64 17.8 79 79 S 14 22 29.60 1003 10 16 0.00 0.00
10:52 am 10:52 Cloudy 75 23.9 63 17.2 66 66 S 15 24 29.58 1002 10 16 0.00 0.00
11:52 am 11:52 Cloudy 80 26.7 60 15.6 51 51 SSW 18 30 29.55 1001 10 16 0.00 0.00
12:52 pm 12:52 Cloudy 84 28.9 59 15 43 43 SSW 16 26 29.54 1000 10 16 0.00 0.00
1:52 pm 13:52 Cloudy 88 31.1 57 13.9 35 35 SW 17 28 29.53 1000 10 16 0.00 0.00
2:52 pm 14:52 Cloudy 89 31.7 56 13.3 33 33 SW 10 17 29.51 999 10 16 0.00 0.00
3:52 pm 15:52 Cloudy 90 32.2 56 13.3 32 32 SW 15 24 29.50 999 10 16 0.00 0.00
4:52 pm 16:52 Cloudy 90 32.2 56 13.3 32 32 SSW 10 17 29.50 999 10 16 0.00 0.00
5:52 pm 17:52 Cloudy 89 31.7 55 12.8 31 31 WSW 7 11 29.53 1000 10 16 0.00 0.00
6:52 pm 18:52 Cloudy 86 30 54 12.2 33 33 W 9 15 29.57 1001 10 16 0.00 0.00
7:52 pm 19:52 Mostly Cloudy 82 27.8 48 8.9 31 31 NNW 15 24 29.60 1003 10 16 0.00 0.00
8:52 pm 20:52 Mostly Cloudy 77 25 49 9.4 37 37 NNW 12 19 29.65 1004 10 16 0.00 0.00
9:52 pm 21:52 Cloudy 77 25 50 10 39 39 NW 15 24 29.67 1005 10 16 0.00 0.00
10:52 pm 22:52 Cloudy 73 22.8 49 9.4 43 43 NNW 15 24 29.69 1005 10 16 0.00 0.00
11:52 pm 23:52 Partly Cloudy 70 21.1 49 9.4 47 47 N 17 28 29.68 1005 10 16 0.00 0.00

Powered by AerisWeather